Location: Dalton Gardens
(47.7327°N, 116.7697°W)
Time: 05:12:51
(UTC+00:00)

ISS - Visible Passes

Search period start: 09 December 2022 00:00
Search period end: 19 December 2022 00:00
Orbit: 414 x 420 km, 51.6° (Epoch: 08 December)

Date Brightness Start Highest point End Pass type
(mag) Time Alt. Az. Time Alt. Az. Time Alt. Az.
09 Dec -0.1 01:26:29 10° SW 01:26:57 10° SW 01:27:25 10° SW visible
10 Dec -0.6 00:36:47 10° W 00:38:58 16° SW 00:41:08 10° S visible
16 Dec -0.2 14:10:05 10° SSE 14:11:02 11° SE 14:11:59 10° ESE visible
18 Dec -1.4 14:07:50 10° SSW 14:10:39 25° SE 14:13:29 10° E visible
